Content
SEND FEEDBACK

Daily
Averages
Monthly
Summary
United States of America

ARCATA, CALIFORNIA


Home > North America > United States > California
Elevation: 217 feet     Latitude: 40 58N     Longitude: 124 06W

WEATHER
 
SELECT A DAY
Number of Records: 245,489;   Date Range: 1/1/95 - 12/16/14
 
SHARE

PRINT THIS DATA

[ ← Previous Day ]
WEATHER ALMANAC - MAY 6, 2013
[ Next Day → ]
[ °C ]   °F
Weather ElementAverageHighLow
Temperature53.6 °F62.1 °F (12:53 pm)45 °F (3:53 am)
Dewpoint50.8 °F54 °F (7:53 pm)44.1 °F (3:53 am)
Humidity91.3 %100 % (7:23 pm)65 % (12:53 pm)
Barometer29.94 in30.01 in (10:53 pm)29.88 in (1:53 am)
Wind Speed3.4 mph13.8 mph (12:53 pm)
Wind Gust16.1 mph (11:53 am)
Weather ElementAverage
Visibility7.7 mi
Wind DirectionESE (118.4 °)

Weather ElementTotal
Precipitation1.19 in
Heating Degree Days11.5 (Base 65)
Growing Degree Days3.6 (Base 50)
Averaged from 31 records on May 6, 2013
WEATHER CONDITIONS BREAKOUT
WIND DIRECTION BREAKOUT
WEATHER BY HOUR - MAY 6, 2013
[ °C ]   °F
Local TimeTemperatureDewpointHumidityBarometerVisibilityWind DirectionWind SpeedGust SpeedPrecipitationEventsConditions
1:53 AM46.9 °F46.0 °F97 %29.88 in10.0 miCalmClear
2:53 AM46.0 °F45.0 °F96 %29.88 in10.0 miEast (100°)3.5 mphClear
3:53 AM45.0 °F44.1 °F97 %29.88 in10.0 miNNE (30°)3.5 mphClear
4:53 AM45.0 °F44.1 °F97 %29.88 in10.0 miCalmClear
5:53 AM46.9 °F46.0 °F97 %29.89 in10.0 miSE (130°)3.5 mphClear
6:53 AM48.9 °F48.0 °F97 %29.91 in10.0 miSSE (150°)4.6 mphClear
7:53 AM51.1 °F48.9 °F92 %29.92 in10.0 miSE (130°)4.6 mphMostly Cloudy
8:53 AM54.0 °F50.0 °F86 %29.92 in10.0 miCalmMostly Cloudy
9:53 AM57.9 °F51.1 °F78 %29.93 in10.0 miWNW (290°)3.5 mphScattered Clouds
10:53 AM57.9 °F50.0 °F75 %29.93 in10.0 miWNW (300°)5.8 mphClear
11:53 AM61.0 °F51.1 °F70 %29.93 in10.0 miNNW (330°)11.5 mph16.1 mphClear
12:53 PM62.1 °F50.0 °F65 %29.94 in10.0 miNW (320°)13.8 mphClear
1:53 PM61.0 °F50.0 °F67 %29.94 in10.0 miNNW (330°)12.7 mphScattered Clouds
2:53 PM61.0 °F51.1 °F70 %29.94 in10.0 miNW (320°)12.7 mphClear
3:53 PM55.9 °F50.0 °F80 %29.94 in10.0 miNNW (330°)9.2 mphMostly Cloudy
4:53 PM55.0 °F51.1 °F86 %29.96 in10.0 miNNW (330°)9.2 mph0.00 inRainLight Rain
5:53 PM55.0 °F52.0 °F89 %29.97 in10.0 miCalm0.01 inRainLight Rain
6:53 PM55.0 °F53.1 °F93 %29.97 in10.0 miCalm0.01 inRainLight Rain
7:23 PM53.6 °F53.6 °F100 %29.96 in2.0 miCalm0.07 inRainRain
7:34 PM53.6 °F53.6 °F100 %29.97 in4.0 miCalm0.10 inRainRain
7:48 PM53.6 °F53.6 °F100 %29.96 in2.5 miCalm0.16 inRainRain
7:53 PM54.0 °F54.0 °F100 %29.99 in2.5 miCalm0.18 inRainHeavy Rain
8:02 PM53.6 °F53.6 °F100 %29.96 in4.0 miCalm0.03 inRainRain
8:16 PM53.6 °F53.6 °F100 %29.96 in2.5 miCalm0.10 inRainHeavy Rain
8:27 PM53.6 °F53.6 °F100 %29.95 in4.0 miWest (280°)3.5 mph0.11 inRainLight Rain
8:39 PM53.6 °F53.6 °F100 %29.95 in2.0 miWNW (300°)4.6 mph0.13 inRainLight Rain
8:48 PM53.6 °F53.6 °F100 %29.96 in4.0 miCalm0.14 inRainLight Rain
8:53 PM53.1 °F53.1 °F100 %29.98 in5.0 miCalm0.14 inRainLight Rain
9:53 PM54.0 °F53.1 °F97 %30.00 in8.0 miCalm0.01 inOvercast
10:53 PM53.1 °F53.1 °F100 %30.01 in7.0 miCalmOvercast
11:53 PM52.0 °F52.0 °F100 %30.00 in10.0 miCalmScattered Clouds
Hourly data recorded from KACV, located miles away from Arcata, California







STORIES FROM OUR PARTNERS